NIMBUS 2 DEB

Satellite information

Favourite Embed

Satellite Type and Status

DEBRISIN ORBIT

Key statistics

Satellite NIMBUS 2 DEB at a glance.

Uptime

21604

Days in orbit

Revolutions

≈ 13.9

Per day

Orbit

SSO

Sun Synchronous Orbit

Inclination

100.1

Latest

Satellite identification and parameters

Extended collection of information and parameters for NIMBUS 2 DEB.

Object identification

Identified? True

Debris? True

Object name: NIMBUS 2 DEB

International designator: 1966-040J

Object number (NORAD): 26669

Object ID (CCSDS): 26669

Country: UNITED STATES OF AMERICA (US)

Current information (Y/N): Y

RCS size: SMALL

Orbital parameters

Period: 103.966 minutes

Inclination: 100.1414 deg

SMA: 7324.12 km

Apoapsis: 972.096 km

Periapsis: 919.875 km

RAAN: 203.8406 deg

Eccentricy: 0.003565

Argument of periapsis: 5.4565 deg

Mean anomaly: 168.6732 deg

Mean motion: 13.85063175 rev/day

Mean motion (dot): 0.00003571 rev/day2

B* drag term: 0.0031823 1/REarth

Two-line elements (TLE)

Creation date: July 7, 2025, 10:46 p.m.

Reference frame: TEME

Reference center: EARTH

Epoch: July 7, 2025, 7:59 p.m. UTC

TLE line 0: 0 NIMBUS 2 DEB

TLE line 1: 1 26669U 66040J 25188.83314032 .00003571 00000-0 31823-2 0 9998

TLE line 2: 2 26669 100.1414 203.8406 0035650 5.4565 168.6732 13.85063175242290

Live tracking on map

Real-time ground track for satellite NIMBUS 2 DEB.

In-orbit conjunctions

A list of the most updated potential collisions computed for object NIMBUS 2 DEB.

Target Orbit TCA Probability of collision Miss distance Type
COSMOS 1275 DEB LEO 2025-02-06 05:45:18 0.0001332897 62.0 (m) DEBRIS
SL-8 R/B LEO 2024-12-28 07:31:22 0.0003903262 42.0 (m) ROCKET BODY
SL-8 R/B LEO 2024-09-22 16:29:09 0.0001833941 56.0 (m) ROCKET BODY

Associated space launch

Nimbus 2, the second in a series of second-generation meteorological research-and-development satellites, added an additional medium-resolution infrared radiometer (MRIR) compared to Nimbus 1.

NIMBUS 2 DEB was lifted into orbit during the mission ‘Thor SLV-2A Agena B | Nimbus 2’, on board a Thor SLV-2A Agena B space rocket.

The launch took place on May 15, 1966, 7:55 a.m. from Space Launch Complex 2E.

For more information about the launch, click the button.

Launch to space Thor SLV-2A Agena B | Nimbus 2
Thor SLV-2A Agena B | Nimbus 2

Agency: N/A

Status: Launch Successful

Launch date: May 15, 1966, 7:55 a.m. UTC

Rocket: Thor SLV-2A Agena B

Launch pad: Space Launch Complex 2E

Location: Vandenberg SFB, CA, USA

...

Latest news about this satellite

There are no fresh news available about this satellite. Check back as we update our databases every day.


Newsletter sign-up

Weekly statistics, charts and insights to help you stay on top of the space industry.